TRNST86 PAMR-PFCB

Flight info

Callsign TRNST86
Flight time N/A
Altitude 9000
Route HOPER PEPPI
Aircraft C208/L-SDFGR/C

Departure

Time 2026-05-07 23:37
Airport Merrill Field (PAMR)

Arrival

Time N/A
Airport Chenega Bay Airport (PFCB)
Time Latitude Longitude Altitude Speed Heading
2026-05-07 23:30 61.21688 -149.84080 139 ft 0 kts 263°
2026-05-07 23:34 61.21686 -149.84101 139 ft 3 kts 229°
2026-05-07 23:34 61.21646 -149.84124 139 ft 9 kts 256°
2026-05-07 23:34 61.21644 -149.84298 139 ft 15 kts 271°
2026-05-07 23:35 61.21645 -149.84554 140 ft 21 kts 270°
2026-05-07 23:35 61.21645 -149.84884 142 ft 25 kts 270°
2026-05-07 23:35 61.21644 -149.85208 143 ft 17 kts 271°
2026-05-07 23:35 61.21573 -149.85263 143 ft 17 kts 175°
2026-05-07 23:36 61.21354 -149.85261 138 ft 54 kts 180°
2026-05-07 23:36 61.20844 -149.85266 178 ft 85 kts 181°
2026-05-07 23:36 61.20251 -149.85186 376 ft 87 kts 151°
2026-05-07 23:36 61.19843 -149.84191 539 ft 95 kts 129°
2026-05-07 23:37 61.19453 -149.83062 768 ft 97 kts 128°
2026-05-07 23:37 61.19051 -149.81837 925 ft 110 kts 129°
2026-05-07 23:37 61.18519 -149.80715 1199 ft 109 kts 154°
2026-05-07 23:37 61.17809 -149.80366 1455 ft 109 kts 182°
2026-05-07 23:38 61.17045 -149.80434 1698 ft 111 kts 184°
2026-05-07 23:38 61.16267 -149.80519 1912 ft 114 kts 179°
2026-05-07 23:38 61.15471 -149.80465 2150 ft 115 kts 179°
2026-05-07 23:38 61.14667 -149.80479 2402 ft 116 kts 180°
2026-05-07 23:39 61.13856 -149.80457 2647 ft 117 kts 175°
2026-05-07 23:39 61.13051 -149.80121 2897 ft 119 kts 166°
2026-05-07 23:39 61.12261 -149.79665 3134 ft 120 kts 166°
2026-05-07 23:39 61.11456 -149.79216 3375 ft 120 kts 166°
2026-05-07 23:40 61.10643 -149.78791 3606 ft 120 kts 167°
2026-05-07 23:40 61.09831 -149.78385 3843 ft 120 kts 167°
2026-05-07 23:40 61.09017 -149.77988 4078 ft 120 kts 168°
2026-05-07 23:40 61.08203 -149.77603 4303 ft 120 kts 167°
2026-05-07 23:41 61.07395 -149.77224 4538 ft 119 kts 167°
2026-05-07 23:41 61.06592 -149.76841 4779 ft 118 kts 167°
2026-05-07 23:41 61.05794 -149.76461 5017 ft 117 kts 167°
2026-05-07 23:41 61.05003 -149.76081 5252 ft 117 kts 167°
2026-05-07 23:42 61.04216 -149.75706 5480 ft 115 kts 167°
2026-05-07 23:42 61.03444 -149.75331 5727 ft 114 kts 166°
2026-05-07 23:42 61.02672 -149.74965 5984 ft 114 kts 167°
2026-05-07 23:42 61.01897 -149.74602 6225 ft 114 kts 167°
2026-05-07 23:43 61.01131 -149.74240 6451 ft 112 kts 165°
2026-05-07 23:43 61.00659 -149.73813 6601 ft 112 kts 148°
2026-05-07 23:43 61.00141 -149.72610 6827 ft 114 kts 123°
2026-05-07 23:43 60.99785 -149.70546 7144 ft 116 kts 112°
2026-05-07 23:44 60.99569 -149.68951 7387 ft 116 kts 111°
2026-05-07 23:44 60.99421 -149.67876 7547 ft 115 kts 112°
2026-05-07 23:44 60.99201 -149.66291 7781 ft 114 kts 112°
2026-05-07 23:44 60.98980 -149.64752 8012 ft 112 kts 114°
2026-05-07 23:45 60.98755 -149.63226 8240 ft 110 kts 115°
2026-05-07 23:45 60.98535 -149.61733 8481 ft 107 kts 115°
2026-05-07 23:45 60.98321 -149.60277 8717 ft 105 kts 114°
2026-05-07 23:45 60.98112 -149.58853 8965 ft 103 kts 115°
2026-05-07 23:46 60.97909 -149.57461 9215 ft 100 kts 115°
2026-05-07 23:46 60.97713 -149.56104 9470 ft 97 kts 116°
2026-05-07 23:46 60.97523 -149.54794 9702 ft 93 kts 116°
2026-05-07 23:46 60.97346 -149.53556 9936 ft 86 kts 117°
2026-05-07 23:47 60.97193 -149.52434 10119 ft 77 kts 117°
2026-05-07 23:47 60.97034 -149.51299 10135 ft 87 kts 119°
2026-05-07 23:47 60.96817 -149.50053 10185 ft 98 kts 119°
2026-05-07 23:47 60.96576 -149.48638 10241 ft 111 kts 116°
2026-05-07 23:48 60.96321 -149.47054 10295 ft 123 kts 116°
2026-05-07 23:48 60.96056 -149.45329 10392 ft 130 kts 115°
2026-05-07 23:48 60.95782 -149.43505 10481 ft 136 kts 114°
2026-05-07 23:48 60.95497 -149.41615 10580 ft 141 kts 114°
2026-05-07 23:49 60.95200 -149.39661 10698 ft 145 kts 115°
2026-05-07 23:49 60.94881 -149.37654 10805 ft 149 kts 116°
2026-05-07 23:49 60.94555 -149.35594 10909 ft 153 kts 115°
2026-05-07 23:49 60.94230 -149.33488 11012 ft 156 kts 114°
2026-05-07 23:50 60.93900 -149.31333 11096 ft 161 kts 115°
2026-05-07 23:50 60.93556 -149.29098 11109 ft 167 kts 115°
2026-05-07 23:50 60.93199 -149.26799 11096 ft 170 kts 114°
2026-05-07 23:50 60.92843 -149.24467 11093 ft 171 kts 114°
2026-05-07 23:51 60.92486 -149.22126 11096 ft 172 kts 114°
2026-05-07 23:51 60.92129 -149.19771 11096 ft 172 kts 115°
2026-05-07 23:51 60.91772 -149.17424 11097 ft 172 kts 114°
2026-05-07 23:51 60.91415 -149.15075 11099 ft 172 kts 115°
2026-05-07 23:52 60.91060 -149.12757 11113 ft 172 kts 114°
2026-05-07 23:52 60.90702 -149.10410 11114 ft 172 kts 115°
2026-05-07 23:52 60.90343 -149.08065 11116 ft 172 kts 115°
2026-05-07 23:52 60.89981 -149.05718 11126 ft 173 kts 114°
2026-05-07 23:53 60.89615 -149.03345 11130 ft 175 kts 115°
2026-05-07 23:53 60.89241 -149.00956 11102 ft 176 kts 115°
2026-05-07 23:53 60.88869 -148.98601 11090 ft 171 kts 114°
2026-05-07 23:53 60.88506 -148.96282 11122 ft 170 kts 114°
2026-05-07 23:54 60.88145 -148.93958 11133 ft 171 kts 114°
2026-05-07 23:54 60.87778 -148.91622 11129 ft 172 kts 114°
2026-05-07 23:54 60.87413 -148.89288 11118 ft 171 kts 114°
2026-05-07 23:54 60.87051 -148.86979 11104 ft 168 kts 114°
2026-05-07 23:55 60.86699 -148.84711 11127 ft 166 kts 114°
2026-05-07 23:55 60.86355 -148.82469 11148 ft 168 kts 113°
2026-05-07 23:55 60.86003 -148.80195 11142 ft 170 kts 114°
2026-05-07 23:55 60.85651 -148.77901 11100 ft 167 kts 113°
2026-05-07 23:56 60.85300 -148.75664 11108 ft 163 kts 115°
2026-05-07 23:56 60.84940 -148.73479 11080 ft 159 kts 115°
2026-05-07 23:56 60.84597 -148.71329 11074 ft 157 kts 114°
2026-05-07 23:56 60.84269 -148.69220 11094 ft 154 kts 114°
2026-05-07 23:57 60.83951 -148.67141 11095 ft 151 kts 114°
2026-05-07 23:57 60.83640 -148.65111 11122 ft 149 kts 114°
2026-05-07 23:57 60.83322 -148.63064 11164 ft 153 kts 114°
2026-05-07 23:57 60.82985 -148.60952 11179 ft 159 kts 115°
2026-05-07 23:58 60.82636 -148.58778 11171 ft 162 kts 115°
2026-05-07 23:58 60.82275 -148.56564 11167 ft 165 kts 115°
2026-05-07 23:58 60.81910 -148.54313 11154 ft 167 kts 114°
2026-05-07 23:58 60.81546 -148.52041 11148 ft 168 kts 114°
2026-05-07 23:59 60.81185 -148.49760 11143 ft 168 kts 114°
2026-05-07 23:59 60.80822 -148.47483 11143 ft 168 kts 114°
2026-05-07 23:59 60.80463 -148.45241 11139 ft 167 kts 114°
2026-05-07 23:59 60.80098 -148.42949 11142 ft 167 kts 114°
2026-05-08 00:00 60.79742 -148.40685 11147 ft 167 kts 114°
2026-05-08 00:00 60.79388 -148.38449 11149 ft 167 kts 114°
2026-05-08 00:00 60.79027 -148.36180 11149 ft 167 kts 114°
2026-05-08 00:00 60.78666 -148.33918 11146 ft 167 kts 114°
2026-05-08 00:01 60.78303 -148.31652 11148 ft 168 kts 114°
2026-05-08 00:01 60.77939 -148.29385 11152 ft 168 kts 114°
2026-05-08 00:01 60.77575 -148.27113 11151 ft 168 kts 114°
2026-05-08 00:01 60.77209 -148.24841 11150 ft 168 kts 114°
2026-05-08 00:02 60.76843 -148.22563 11147 ft 168 kts 114°
2026-05-08 00:02 60.76476 -148.20289 11144 ft 168 kts 114°
2026-05-08 00:02 60.76110 -148.18018 11149 ft 168 kts 114°
2026-05-08 00:02 60.75744 -148.15752 11142 ft 167 kts 114°
2026-05-08 00:03 60.75381 -148.13498 11149 ft 167 kts 114°
2026-05-08 00:03 60.75016 -148.11241 11151 ft 167 kts 114°
2026-05-08 00:03 60.74650 -148.08983 11146 ft 168 kts 114°
2026-05-08 00:03 60.74281 -148.06717 11147 ft 168 kts 114°
2026-05-08 00:04 60.73917 -148.04478 11149 ft 168 kts 114°
2026-05-08 00:04 60.73547 -148.02211 11145 ft 168 kts 114°
2026-05-08 00:04 60.73177 -147.99941 11147 ft 168 kts 114°
2026-05-08 00:04 60.72807 -147.97676 11142 ft 168 kts 114°
2026-05-08 00:05 60.72438 -147.95412 11147 ft 168 kts 114°
2026-05-08 00:05 60.72065 -147.93146 11146 ft 168 kts 114°
2026-05-08 00:05 60.71695 -147.90874 11152 ft 168 kts 114°
2026-05-08 00:05 60.71320 -147.88597 11161 ft 170 kts 115°
2026-05-08 00:06 60.70708 -147.86609 11152 ft 164 kts 143°
2026-05-08 00:06 60.69752 -147.85450 11146 ft 162 kts 156°
2026-05-08 00:06 60.68736 -147.84485 11135 ft 160 kts 158°
2026-05-08 00:06 60.67723 -147.83539 11138 ft 160 kts 158°
2026-05-08 00:07 60.66711 -147.82589 11137 ft 160 kts 157°
2026-05-08 00:07 60.65703 -147.81631 11142 ft 159 kts 157°
2026-05-08 00:07 60.64698 -147.80668 11142 ft 159 kts 157°
2026-05-08 00:07 60.63693 -147.79701 11142 ft 159 kts 157°
2026-05-08 00:08 60.62693 -147.78737 11123 ft 159 kts 157°
2026-05-08 00:08 60.61691 -147.77771 11137 ft 160 kts 156°
2026-05-08 00:08 60.60684 -147.76800 11141 ft 160 kts 156°
2026-05-08 00:08 60.59673 -147.75826 11141 ft 161 kts 156°
2026-05-08 00:09 60.58657 -147.74847 11149 ft 162 kts 156°
2026-05-08 00:09 60.57636 -147.73867 11151 ft 163 kts 156°
2026-05-08 00:09 60.56610 -147.72880 11150 ft 163 kts 156°
2026-05-08 00:09 60.55580 -147.71891 11147 ft 164 kts 156°
2026-05-08 00:10 60.54550 -147.70903 11141 ft 164 kts 156°
2026-05-08 00:10 60.53523 -147.69918 11141 ft 163 kts 156°
2026-05-08 00:10 60.52510 -147.68947 11141 ft 163 kts 156°
2026-05-08 00:10 60.51485 -147.67965 11143 ft 163 kts 156°
2026-05-08 00:11 60.50460 -147.66982 11146 ft 163 kts 156°
2026-05-08 00:11 60.49437 -147.66004 11145 ft 163 kts 156°
2026-05-08 00:11 60.48413 -147.65026 11148 ft 163 kts 156°
2026-05-08 00:11 60.47386 -147.64045 11139 ft 163 kts 156°
2026-05-08 00:12 60.46364 -147.63069 11135 ft 162 kts 156°
2026-05-08 00:12 60.45345 -147.62097 11147 ft 162 kts 156°
2026-05-08 00:12 60.44324 -147.61124 11147 ft 162 kts 157°
2026-05-08 00:12 60.43301 -147.60149 11148 ft 163 kts 156°
2026-05-08 00:13 60.42275 -147.59174 11145 ft 163 kts 157°
2026-05-08 00:13 60.41250 -147.58198 11145 ft 163 kts 157°
2026-05-08 00:13 60.40225 -147.57225 11147 ft 163 kts 156°
2026-05-08 00:13 60.39198 -147.56248 11080 ft 166 kts 156°
2026-05-08 00:14 60.38150 -147.55259 10641 ft 160 kts 156°
2026-05-08 00:14 60.37170 -147.54332 10208 ft 151 kts 155°
2026-05-08 00:14 60.36252 -147.53450 9757 ft 146 kts 155°
2026-05-08 00:14 60.35346 -147.52575 9286 ft 143 kts 156°
2026-05-08 00:15 60.34450 -147.51717 8828 ft 142 kts 155°
2026-05-08 00:15 60.33558 -147.50870 8379 ft 141 kts 156°
2026-05-08 00:15 60.32670 -147.50030 7923 ft 141 kts 155°
2026-05-08 00:15 60.31786 -147.49191 7483 ft 140 kts 155°
2026-05-08 00:16 60.30906 -147.48362 7049 ft 139 kts 155°
2026-05-08 00:16 60.30028 -147.47532 6618 ft 139 kts 155°
2026-05-08 00:16 60.29154 -147.46717 6163 ft 137 kts 153°
2026-05-08 00:16 60.28294 -147.45902 5706 ft 136 kts 154°
2026-05-08 00:17 60.27436 -147.45089 5260 ft 136 kts 154°
2026-05-08 00:17 60.26582 -147.44284 4806 ft 135 kts 154°
2026-05-08 00:17 60.25733 -147.43485 4351 ft 135 kts 155°
2026-05-08 00:17 60.24922 -147.42717 4262 ft 122 kts 154°
2026-05-08 00:18 60.24135 -147.41991 4207 ft 128 kts 161°
2026-05-08 00:18 60.23235 -147.41882 4186 ft 131 kts 188°
2026-05-08 00:18 60.22417 -147.42682 4221 ft 134 kts 215°
2026-05-08 00:18 60.21714 -147.43926 4232 ft 134 kts 215°
2026-05-08 00:19 60.20992 -147.45083 4244 ft 135 kts 214°
2026-05-08 00:19 60.20262 -147.46274 4231 ft 135 kts 215°
2026-05-08 00:19 60.19539 -147.47492 4234 ft 136 kts 216°
2026-05-08 00:19 60.18816 -147.48706 4234 ft 136 kts 215°
2026-05-08 00:20 60.18084 -147.49931 4152 ft 141 kts 215°
2026-05-08 00:20 60.17308 -147.51232 3941 ft 149 kts 216°